| time (UTC) | temp C | wind direction | speed KPH | gust KPH | rain 1hr cm | rain 24hr cm | rain mn cm | humidity % | barometer mb |
| 20260509201006 | 23 | 223 | 0.0 | 0.0 | 0.00 | 0.00 | 0.00 | 31 | 1008.9 |
| 20260509200510 | 24 | 290 | 0.0 | 0.0 | 0.00 | 0.00 | 0.00 | 33 | 1009.0 |
| 20260509200007 | 24 | 280 | 0.0 | 0.0 | 0.00 | 0.00 | 0.00 | 29 | 1009.1 |
| 20260509195507 | 23 | 248 | 0.0 | 0.0 | 0.00 | 0.00 | 0.00 | 33 | 1009.1 |
| 20260509195005 | 23 | 297 | 0.0 | 1.6 | 0.00 | 0.00 | 0.00 | 31 | 1009.1 |
| 20260509194505 | 25 | 267 | 0.0 | 3.2 | 0.00 | 0.00 | 0.00 | 32 | 1009.1 |
| 20260509194004 | 24 | 182 | 0.0 | 3.2 | 0.00 | 0.00 | 0.00 | 35 | 1009.1 |
| 20260509193507 | 23 | 246 | 0.0 | 1.6 | 0.00 | 0.00 | 0.00 | 37 | 1009.2 |
| 20260509193002 | 23 | 288 | 0.0 | 1.6 | 0.00 | 0.00 | 0.00 | 32 | 1009.2 |
| 20260509192501 | 23 | 294 | 0.0 | 0.0 | 0.00 | 0.00 | 0.00 | 33 | 1009.2 |
| 20260509192105 | 23 | 227 | 0.0 | 0.0 | 0.00 | 0.00 | 0.00 | 39 | 1009.2 |
| 20260509191605 | 22 | 229 | 0.0 | 0.0 | 0.00 | 0.00 | 0.00 | 36 | 1009.2 |
| 20260509191102 | 22 | 289 | 0.0 | 0.0 | 0.00 | 0.00 | 0.00 | 37 | 1009.1 |
| 20260509190600 | 23 | 295 | 0.0 | 0.0 | 0.00 | 0.00 | 0.00 | 36 | 1009.2 |
| 20260509190100 | 23 | 280 | 0.0 | 1.6 | 0.00 | 0.00 | 0.00 | 36 | 1009.3 |
| 20260509185558 | 22 | 294 | 0.0 | 1.6 | 0.00 | 0.00 | 0.00 | 36 | 1009.2 |
| 20260509185058 | 22 | 298 | 0.0 | 0.0 | 0.00 | 0.00 | 0.00 | 40 | 1009.3 |
| 20260509184558 | 22 | 281 | 0.0 | 0.0 | 0.00 | 0.00 | 0.00 | 37 | 1009.4 |
| 20260509184056 | 22 | 254 | 0.0 | 0.0 | 0.00 | 0.00 | 0.00 | 36 | 1009.4 |
| 20260509183556 | 22 | 283 | 0.0 | 1.6 | 0.00 | 0.00 | 0.00 | 38 | 1009.4 |
| 20260509183104 | 22 | 153 | 0.0 | 1.6 | 0.00 | 0.00 | 0.00 | 40 | 1009.4 |
| 20260509182553 | 22 | 315 | 0.0 | 0.0 | 0.00 | 0.00 | 0.00 | 41 | 1009.4 |
| 20260509182053 | 22 | 295 | 0.0 | 0.0 | 0.00 | 0.00 | 0.00 | 39 | 1009.5 |
| 20260509181553 | 22 | 248 | 0.0 | 0.0 | 0.00 | 0.00 | 0.00 | 40 | 1009.6 |
| 20260509181053 | 22 | 252 | 0.0 | 0.0 | 0.00 | 0.00 | 0.00 | 40 | 1009.5 |
| 20260509180555 | 22 | 360 | 0.0 | 0.0 | 0.00 | 0.00 | 0.00 | 39 | 1009.6 |
| 20260509180051 | 21 | 288 | 0.0 | 0.0 | 0.00 | 0.00 | 0.00 | 39 | 1009.6 |
| 20260509175550 | 21 | 295 | 0.0 | 1.6 | 0.00 | 0.00 | 0.00 | 40 | 1009.6 |
| 20260509175053 | 21 | 289 | 0.0 | 1.6 | 0.00 | 0.00 | 0.00 | 41 | 1009.6 |
| 20260509174552 | 21 | 294 | 0.0 | 0.0 | 0.00 | 0.00 | 0.00 | 44 | 1009.6 |
| 20260509174049 | 21 | 254 | 0.0 | 0.0 | 0.00 | 0.00 | 0.00 | 42 | 1009.6 |
| 20260509173548 | 21 | 252 | 0.0 | 0.0 | 0.00 | 0.00 | 0.00 | 43 | 1009.6 |
| 20260509173054 | 21 | 222 | 0.0 | 1.6 | 0.00 | 0.00 | 0.00 | 43 | 1009.7 |
| 20260509172547 | 21 | 337 | 0.0 | 1.6 | 0.00 | 0.00 | 0.00 | 43 | 1009.6 |
| 20260509172046 | 21 | 261 | 0.0 | 0.0 | 0.00 | 0.00 | 0.00 | 45 | 1009.7 |
| 20260509171547 | 21 | 257 | 0.0 | 0.0 | 0.00 | 0.00 | 0.00 | 46 | 1009.7 |
| 20260509171045 | 20 | 261 | 0.0 | 0.0 | 0.00 | 0.00 | 0.00 | 45 | 1009.8 |
| 20260509170545 | 20 | 278 | 0.0 | 0.0 | 0.00 | 0.00 | 0.00 | 46 | 1009.8 |
| 20260509170046 | 20 | 276 | 0.0 | 0.0 | 0.00 | 0.00 | 0.00 | 45 | 1009.7 |
| 20260509165545 | 20 | 294 | 0.0 | 0.0 | 0.00 | 0.00 | 0.00 | 46 | 1009.8 |
| 20260509165044 | 20 | 290 | 0.0 | 1.6 | 0.00 | 0.00 | 0.00 | 45 | 1009.8 |
| 20260509164544 | 20 | 294 | 0.0 | 1.6 | 0.00 | 0.00 | 0.00 | 48 | 1009.8 |
| 20260509164044 | 20 | 290 | 0.0 | 0.0 | 0.00 | 0.00 | 0.00 | 45 | 1009.9 |
| 20260509163543 | 20 | 245 | 0.0 | 1.6 | 0.00 | 0.00 | 0.00 | 45 | 1009.8 |
| 20260509163048 | 20 | 302 | 0.0 | 0.0 | 0.00 | 0.00 | 0.00 | 48 | 1009.8 |
| 20260509162541 | 20 | 288 | 0.0 | 0.0 | 0.00 | 0.00 | 0.00 | 50 | 1009.7 |
| 20260509162043 | 19 | 287 | 0.0 | 0.0 | 0.00 | 0.00 | 0.00 | 49 | 1009.6 |
| 20260509161544 | 19 | 293 | 0.0 | 0.0 | 0.00 | 0.00 | 0.00 | 50 | 1009.6 |
| 20260509161039 | 18 | 296 | 0.0 | 0.0 | 0.00 | 0.00 | 0.00 | 50 | 1009.6 |
| 20260509160539 | 18 | 291 | 0.0 | 1.6 | 0.00 | 0.00 | 0.00 | 51 | 1009.6 |
| 20260509160041 | 18 | 221 | 0.0 | 1.6 | 0.00 | 0.00 | 0.00 | 51 | 1009.5 |
| 20260509155539 | 18 | 329 | 0.0 | 0.0 | 0.00 | 0.00 | 0.00 | 52 | 1009.3 |
| 20260509155037 | 18 | 242 | 0.0 | 0.0 | 0.00 | 0.00 | 0.00 | 52 | 1009.4 |
| 20260509154537 | 18 | 261 | 0.0 | 1.6 | 0.00 | 0.00 | 0.00 | 52 | 1009.4 |
| 20260509154036 | 18 | 303 | 0.0 | 1.6 | 0.00 | 0.00 | 0.00 | 53 | 1009.4 |
| 20260509153537 | 18 | 257 | 0.0 | 0.0 | 0.00 | 0.00 | 0.00 | 53 | 1009.5 |
| 20260509153047 | 18 | 294 | 0.0 | 0.0 | 0.00 | 0.00 | 0.00 | 52 | 1009.4 |
| 20260509152535 | 18 | 252 | 0.0 | 0.0 | 0.00 | 0.00 | 0.00 | 55 | 1009.3 |
| 20260509152035 | 18 | 227 | 0.0 | 0.0 | 0.00 | 0.00 | 0.00 | 54 | 1009.3 |
| 20260509151539 | 17 | 252 | 0.0 | 0.0 | 0.00 | 0.00 | 0.00 | 55 | 1009.3 |
| 20260509151035 | 17 | 210 | 0.0 | 6.4 | 0.00 | 0.00 | 0.00 | 55 | 1009.2 |
| 20260509150536 | 17 | 237 | 0.0 | 6.4 | 0.00 | 0.00 | 0.00 | 55 | 1009.3 |
| 20260509150040 | 17 | 256 | 0.0 | 1.6 | 0.00 | 0.00 | 0.00 | 57 | 1009.3 |
| 20260509145534 | 17 | 213 | 0.0 | 1.6 | 0.00 | 0.00 | 0.00 | 57 | 1009.2 |
| 20260509145030 | 17 | 273 | 0.0 | 0.0 | 0.00 | 0.00 | 0.00 | 57 | 1009.2 |
| 20260509144531 | 17 | 242 | 0.0 | 0.0 | 0.00 | 0.00 | 0.00 | 57 | 1009.1 |
| 20260509144029 | 16 | 248 | 0.0 | 0.0 | 0.00 | 0.00 | 0.00 | 56 | 1009.2 |
| 20260509143528 | 16 | 232 | 0.0 | 0.0 | 0.00 | 0.00 | 0.00 | 58 | 1009.1 |
| 20260509143029 | 16 | 271 | 0.0 | 0.0 | 0.00 | 0.00 | 0.00 | 58 | 1009.2 |
| 20260509142527 | 16 | 240 | 0.0 | 0.0 | 0.00 | 0.00 | 0.00 | 59 | 1009.2 |
| 20260509142027 | 16 | 248 | 0.0 | 0.0 | 0.00 | 0.00 | 0.00 | 58 | 1009.1 |
| 20260509141527 | 16 | 233 | 0.0 | 0.0 | 0.00 | 0.00 | 0.00 | 59 | 1009.1 |
| 20260509141027 | 16 | 221 | 0.0 | 0.0 | 0.00 | 0.00 | 0.00 | 59 | 1009.2 |
| 20260509140526 | 16 | 213 | 0.0 | 0.0 | 0.00 | 0.00 | 0.00 | 60 | 1009.1 |
| 20260509140033 | 15 | 193 | 0.0 | 0.0 | 0.00 | 0.00 | 0.00 | 59 | 1009.1 |
| 20260509135529 | 15 | 219 | 0.0 | 0.0 | 0.00 | 0.00 | 0.00 | 60 | 1009.1 |
| 20260509135025 | 15 | 221 | 0.0 | 0.0 | 0.00 | 0.00 | 0.00 | 60 | 1009.0 |
| 20260509134524 | 15 | 233 | 0.0 | 0.0 | 0.00 | 0.00 | 0.00 | 61 | 1009.0 |
| 20260509134024 | 15 | 240 | 0.0 | 0.0 | 0.00 | 0.00 | 0.00 | 60 | 1009.1 |
| 20260509133524 | 15 | 246 | 0.0 | 0.0 | 0.00 | 0.00 | 0.00 | 61 | 1009.1 |
| 20260509133024 | 15 | 222 | 0.0 | 0.0 | 0.00 | 0.00 | 0.00 | 60 | 1009.0 |
| 20260509132524 | 15 | 206 | 0.0 | 0.0 | 0.00 | 0.00 | 0.00 | 61 | 1009.0 |
| 20260509132023 | 15 | 244 | 0.0 | 0.0 | 0.00 | 0.00 | 0.00 | 61 | 1009.0 |
| 20260509131525 | 14 | 207 | 0.0 | 0.0 | 0.00 | 0.00 | 0.00 | 61 | 1009.0 |
| 20260509131023 | 14 | 213 | 0.0 | 0.0 | 0.00 | 0.00 | 0.00 | 61 | 1008.9 |
| 20260509130524 | 14 | 236 | 0.0 | 0.0 | 0.00 | 0.00 | 0.00 | 62 | 1008.9 |
| 20260509130023 | 14 | 209 | 0.0 | 0.0 | 0.00 | 0.00 | 0.00 | 62 | 1009.0 |
| 20260509125526 | 13 | 218 | 0.0 | 0.0 | 0.00 | 0.00 | 0.00 | 62 | 1009.0 |
| 20260509125023 | 13 | 240 | 0.0 | 0.0 | 0.00 | 0.00 | 0.00 | 62 | 1008.9 |
| 20260509124523 | 13 | 238 | 0.0 | 0.0 | 0.00 | 0.00 | 0.00 | 62 | 1008.8 |
| 20260509124021 | 13 | 236 | 0.0 | 0.0 | 0.00 | 0.00 | 0.00 | 61 | 1008.9 |
| 20260509123521 | 13 | 202 | 0.0 | 0.0 | 0.00 | 0.00 | 0.00 | 61 | 1008.8 |
| 20260509123022 | 13 | 229 | 0.0 | 0.0 | 0.00 | 0.00 | 0.00 | 61 | 1008.7 |
| 20260509122521 | 13 | 242 | 0.0 | 0.0 | 0.00 | 0.00 | 0.00 | 61 | 1008.6 |
| 20260509122023 | 13 | 243 | 0.0 | 0.0 | 0.00 | 0.00 | 0.00 | 61 | 1008.5 |
| 20260509121521 | 13 | 221 | 0.0 | 0.0 | 0.00 | 0.00 | 0.00 | 61 | 1008.4 |
| 20260509121021 | 13 | 206 | 0.0 | 0.0 | 0.00 | 0.00 | 0.00 | 61 | 1008.5 |
| 20260509120521 | 13 | 198 | 0.0 | 0.0 | 0.00 | 0.00 | 0.00 | 61 | 1008.4 |
| 20260509120025 | 13 | 198 | 0.0 | 0.0 | 0.00 | 0.00 | 0.00 | 60 | 1008.5 |
| 20260509115521 | 13 | 198 | 0.0 | 0.0 | 0.00 | 0.00 | 0.00 | 60 | 1008.4 |
| 20260509115019 | 13 | 198 | 0.0 | 0.0 | 0.00 | 0.00 | 0.00 | 60 | 1008.5 |
| 20260509114521 | 13 | 198 | 0.0 | 0.0 | 0.00 | 0.00 | 0.00 | 60 | 1008.4 |
| 20260509114020 | 13 | 198 | 0.0 | 0.0 | 0.00 | 0.00 | 0.00 | 60 | 1008.3 |
| 20260509113519 | 13 | 198 | 0.0 | 0.0 | 0.00 | 0.00 | 0.00 | 60 | 1008.1 |
| 20260509113019 | 13 | 219 | 0.0 | 0.0 | 0.00 | 0.00 | 0.00 | 60 | 1008.2 |
| 20260509112518 | 13 | 227 | 0.0 | 0.0 | 0.00 | 0.00 | 0.00 | 60 | 1008.1 |
| 20260509112018 | 13 | 240 | 0.0 | 0.0 | 0.00 | 0.00 | 0.00 | 59 | 1007.8 |
| 20260509111518 | 13 | 246 | 0.0 | 0.0 | 0.00 | 0.00 | 0.00 | 59 | 1007.9 |
| 20260509111019 | 13 | 234 | 0.0 | 0.0 | 0.00 | 0.00 | 0.00 | 59 | 1007.8 |
| 20260509110518 | 13 | 243 | 0.0 | 1.6 | 0.00 | 0.00 | 0.00 | 59 | 1007.8 |
| 20260509110017 | 14 | 257 | 0.0 | 1.6 | 0.00 | 0.00 | 0.00 | 58 | 1008.0 |
| 20260509105517 | 14 | 232 | 0.0 | 0.0 | 0.00 | 0.00 | 0.00 | 58 | 1007.8 |
| 20260509105018 | 14 | 223 | 0.0 | 0.0 | 0.00 | 0.00 | 0.00 | 57 | 1007.7 |
| 20260509104517 | 14 | 288 | 0.0 | 0.0 | 0.00 | 0.00 | 0.00 | 58 | 1008.1 |
| 20260509104016 | 13 | 244 | 0.0 | 0.0 | 0.00 | 0.00 | 0.00 | 59 | 1007.7 |
| 20260509103516 | 13 | 219 | 0.0 | 0.0 | 0.00 | 0.00 | 0.00 | 58 | 1007.2 |
| 20260509103015 | 13 | 188 | 0.0 | 0.0 | 0.00 | 0.00 | 0.00 | 58 | 1006.8 |
| 20260509102514 | 14 | 188 | 0.0 | 0.0 | 0.00 | 0.00 | 0.00 | 57 | 1006.8 |
| 20260509102015 | 14 | 189 | 0.0 | 0.0 | 0.00 | 0.00 | 0.00 | 57 | 1006.9 |
| 20260509101513 | 14 | 207 | 0.0 | 0.0 | 0.00 | 0.00 | 0.00 | 57 | 1006.9 |
| 20260509101015 | 14 | 219 | 0.0 | 0.0 | 0.00 | 0.00 | 0.00 | 56 | 1007.2 |
| 20260509100511 | 14 | 207 | 0.0 | 0.0 | 0.00 | 0.00 | 0.00 | 56 | 1007.2 |
| 20260509100010 | 15 | 209 | 0.0 | 0.0 | 0.00 | 0.00 | 0.00 | 56 | 1007.4 |
| 20260509095515 | 15 | 203 | 0.0 | 0.0 | 0.00 | 0.00 | 0.00 | 55 | 1007.5 |
| 20260509095007 | 15 | 217 | 0.0 | 0.0 | 0.00 | 0.00 | 0.00 | 55 | 1007.7 |
| 20260509094505 | 15 | 228 | 0.0 | 0.0 | 0.00 | 0.00 | 0.00 | 55 | 1007.9 |
| 20260509094004 | 15 | 238 | 0.0 | 0.0 | 0.00 | 0.00 | 0.00 | 55 | 1008.0 |
| 20260509093504 | 15 | 236 | 0.0 | 0.0 | 0.00 | 0.00 | 0.00 | 55 | 1008.0 |
| 20260509093006 | 15 | 218 | 0.0 | 0.0 | 0.00 | 0.00 | 0.00 | 54 | 1008.1 |
| 20260509092503 | 15 | 202 | 0.0 | 0.0 | 0.00 | 0.00 | 0.00 | 54 | 1008.0 |
| 20260509092004 | 15 | 221 | 0.0 | 0.0 | 0.00 | 0.00 | 0.00 | 53 | 1008.0 |
| 20260509091504 | 15 | 248 | 0.0 | 0.0 | 0.00 | 0.00 | 0.00 | 53 | 1008.1 |
| 20260509091002 | 15 | 229 | 0.0 | 0.0 | 0.00 | 0.00 | 0.00 | 53 | 1008.3 |
| 20260509090502 | 15 | 231 | 0.0 | 0.0 | 0.00 | 0.00 | 0.00 | 53 | 1008.2 |
| 20260509090001 | 15 | 227 | 0.0 | 0.0 | 0.00 | 0.00 | 0.00 | 52 | 1008.2 |
| 20260509085502 | 15 | 219 | 0.0 | 0.0 | 0.00 | 0.00 | 0.00 | 52 | 1008.3 |
| 20260509085100 | 15 | 229 | 0.0 | 0.0 | 0.00 | 0.00 | 0.00 | 52 | 1008.3 |
| 20260509084606 | 15 | 240 | 0.0 | 0.0 | 0.00 | 0.00 | 0.00 | 52 | 1008.2 |
| 20260509084104 | 15 | 234 | 0.0 | 0.0 | 0.00 | 0.00 | 0.00 | 51 | 1008.3 |
| 20260509083559 | 15 | 222 | 0.0 | 0.0 | 0.00 | 0.00 | 0.00 | 51 | 1008.3 |
| 20260509083102 | 15 | 236 | 0.0 | 0.0 | 0.00 | 0.00 | 0.00 | 52 | 1008.2 |
| 20260509082559 | 15 | 228 | 0.0 | 0.0 | 0.00 | 0.00 | 0.00 | 52 | 1008.0 |
| 20260509082059 | 15 | 209 | 0.0 | 0.0 | 0.00 | 0.00 | 0.00 | 51 | 1008.0 |
| 20260509081559 | 15 | 217 | 0.0 | 0.0 | 0.00 | 0.00 | 0.00 | 51 | 1008.0 |
| 20260509081059 | 15 | 191 | 0.0 | 0.0 | 0.00 | 0.00 | 0.00 | 50 | 1008.0 |
| 20260509080559 | 15 | 192 | 0.0 | 0.0 | 0.00 | 0.00 | 0.00 | 50 | 1008.0 |
| 20260509080100 | 15 | 215 | 0.0 | 0.0 | 0.00 | 0.00 | 0.00 | 50 | 1008.2 |
| 20260509075557 | 15 | 190 | 0.0 | 0.0 | 0.00 | 0.00 | 0.00 | 50 | 1008.1 |
| 20260509075057 | 15 | 190 | 0.0 | 0.0 | 0.00 | 0.00 | 0.00 | 49 | 1008.0 |
| 20260509074607 | 15 | 206 | 0.0 | 0.0 | 0.00 | 0.00 | 0.00 | 49 | 1008.1 |
| 20260509074055 | 15 | 198 | 0.0 | 0.0 | 0.00 | 0.00 | 0.00 | 49 | 1008.2 |
| 20260509073557 | 15 | 195 | 0.0 | 0.0 | 0.00 | 0.00 | 0.00 | 48 | 1008.1 |
| 20260509073054 | 15 | 195 | 0.0 | 0.0 | 0.00 | 0.00 | 0.00 | 48 | 1008.3 |
| 20260509072556 | 15 | 201 | 0.0 | 0.0 | 0.00 | 0.00 | 0.00 | 48 | 1008.3 |
| 20260509072052 | 15 | 219 | 0.0 | 0.0 | 0.00 | 0.00 | 0.00 | 47 | 1008.4 |
| 20260509071607 | 15 | 214 | 0.0 | 0.0 | 0.00 | 0.00 | 0.00 | 47 | 1008.4 |
| 20260509071052 | 15 | 216 | 0.0 | 0.0 | 0.00 | 0.00 | 0.00 | 47 | 1008.4 |
| 20260509070551 | 15 | 219 | 0.0 | 0.0 | 0.00 | 0.00 | 0.00 | 46 | 1008.5 |
| 20260509070151 | 15 | 217 | 0.0 | 0.0 | 0.00 | 0.00 | 0.00 | 46 | 1008.5 |
| 20260509065551 | 15 | 204 | 0.0 | 0.0 | 0.00 | 0.00 | 0.00 | 46 | 1008.5 |
| 20260509065048 | 15 | 221 | 0.0 | 0.0 | 0.00 | 0.00 | 0.00 | 46 | 1008.6 |
| 20260509064548 | 16 | 221 | 0.0 | 0.0 | 0.00 | 0.00 | 0.00 | 45 | 1008.7 |
| 20260509064048 | 16 | 211 | 0.0 | 0.0 | 0.00 | 0.00 | 0.00 | 44 | 1008.6 |
| 20260509063548 | 16 | 229 | 0.0 | 0.0 | 0.00 | 0.00 | 0.00 | 44 | 1008.6 |
| 20260509063047 | 16 | 208 | 0.0 | 0.0 | 0.00 | 0.00 | 0.00 | 43 | 1008.6 |
| 20260509062546 | 16 | 208 | 0.0 | 0.0 | 0.00 | 0.00 | 0.00 | 43 | 1008.8 |
| 20260509062045 | 16 | 238 | 0.0 | 0.0 | 0.00 | 0.00 | 0.00 | 42 | 1008.9 |
| 20260509061553 | 16 | 211 | 0.0 | 0.0 | 0.00 | 0.00 | 0.00 | 42 | 1009.0 |
| 20260509061044 | 16 | 208 | 0.0 | 0.0 | 0.00 | 0.00 | 0.00 | 42 | 1009.0 |
| 20260509060545 | 16 | 220 | 0.0 | 0.0 | 0.00 | 0.00 | 0.00 | 42 | 1009.0 |
| 20260509060045 | 16 | 207 | 0.0 | 0.0 | 0.00 | 0.00 | 0.00 | 42 | 1009.0 |
| 20260509055544 | 16 | 202 | 0.0 | 0.0 | 0.00 | 0.00 | 0.00 | 42 | 1009.0 |
| 20260509055043 | 16 | 188 | 0.0 | 0.0 | 0.00 | 0.00 | 0.00 | 43 | 1009.0 |
| 20260509054558 | 16 | 194 | 0.0 | 0.0 | 0.00 | 0.00 | 0.00 | 42 | 1009.1 |
| 20260509054042 | 16 | 186 | 0.0 | 0.0 | 0.00 | 0.00 | 0.00 | 41 | 1009.1 |
| 20260509053542 | 16 | 183 | 0.0 | 0.0 | 0.00 | 0.00 | 0.00 | 41 | 1009.1 |
| 20260509053044 | 16 | 189 | 0.0 | 0.0 | 0.00 | 0.00 | 0.00 | 40 | 1009.2 |
| 20260509052541 | 16 | 213 | 0.0 | 0.0 | 0.00 | 0.00 | 0.00 | 40 | 1009.1 |
| 20260509052042 | 16 | 205 | 0.0 | 0.0 | 0.00 | 0.00 | 0.00 | 40 | 1009.1 |
| 20260509051543 | 16 | 200 | 0.0 | 0.0 | 0.00 | 0.00 | 0.00 | 40 | 1009.1 |
| 20260509051044 | 16 | 185 | 0.0 | 0.0 | 0.00 | 0.00 | 0.00 | 41 | 1009.0 |
| 20260509050541 | 16 | 189 | 0.0 | 0.0 | 0.00 | 0.00 | 0.00 | 41 | 1009.0 |
| 20260509050051 | 16 | 178 | 0.0 | 0.0 | 0.00 | 0.00 | 0.00 | 42 | 1009.0 |
| 20260509045540 | 16 | 180 | 0.0 | 0.0 | 0.00 | 0.00 | 0.00 | 42 | 1009.1 |
| 20260509045041 | 16 | 180 | 0.0 | 0.0 | 0.00 | 0.00 | 0.00 | 41 | 1009.0 |
| 20260509044540 | 16 | 180 | 0.0 | 0.0 | 0.00 | 0.00 | 0.00 | 41 | 1008.9 |
| 20260509044039 | 16 | 179 | 0.0 | 0.0 | 0.00 | 0.00 | 0.00 | 41 | 1008.9 |
| 20260509043541 | 16 | 178 | 0.0 | 0.0 | 0.00 | 0.00 | 0.00 | 41 | 1009.1 |
| 20260509043045 | 16 | 190 | 0.0 | 0.0 | 0.00 | 0.00 | 0.00 | 41 | 1009.0 |
| 20260509042537 | 16 | 194 | 0.0 | 0.0 | 0.00 | 0.00 | 0.00 | 41 | 1009.0 |
| 20260509042038 | 16 | 191 | 0.0 | 0.0 | 0.00 | 0.00 | 0.00 | 41 | 1009.1 |
| 20260509041537 | 16 | 191 | 0.0 | 0.0 | 0.00 | 0.00 | 0.00 | 41 | 1009.1 |
| 20260509041035 | 16 | 178 | 0.0 | 0.0 | 0.00 | 0.00 | 0.00 | 42 | 1009.1 |
| 20260509040538 | 16 | 175 | 0.0 | 0.0 | 0.00 | 0.00 | 0.00 | 42 | 1009.2 |
| 20260509040035 | 16 | 175 | 0.0 | 0.0 | 0.00 | 0.00 | 0.00 | 42 | 1009.2 |
| 20260509035535 | 16 | 175 | 0.0 | 0.0 | 0.00 | 0.00 | 0.00 | 42 | 1009.2 |
| 20260509035036 | 16 | 173 | 0.0 | 0.0 | 0.00 | 0.00 | 0.00 | 43 | 1009.2 |
| 20260509034534 | 16 | 173 | 0.0 | 0.0 | 0.00 | 0.00 | 0.00 | 43 | 1009.2 |
| 20260509034033 | 16 | 167 | 0.0 | 0.0 | 0.00 | 0.00 | 0.00 | 43 | 1009.3 |
| 20260509033534 | 16 | 167 | 0.0 | 0.0 | 0.00 | 0.00 | 0.00 | 43 | 1009.3 |
| 20260509033034 | 15 | 175 | 0.0 | 0.0 | 0.00 | 0.00 | 0.00 | 43 | 1009.4 |
| 20260509032531 | 15 | 170 | 0.0 | 0.0 | 0.00 | 0.00 | 0.00 | 44 | 1009.4 |
| 20260509032031 | 15 | 173 | 0.0 | 0.0 | 0.00 | 0.00 | 0.00 | 44 | 1009.4 |
| 20260509031534 | 15 | 175 | 0.0 | 0.0 | 0.00 | 0.00 | 0.00 | 44 | 1009.5 |
| 20260509031031 | 15 | 175 | 0.0 | 0.0 | 0.00 | 0.00 | 0.00 | 44 | 1009.6 |
| 20260509030531 | 15 | 175 | 0.0 | 0.0 | 0.00 | 0.00 | 0.00 | 44 | 1009.6 |
| 20260509030036 | 15 | 175 | 0.0 | 0.0 | 0.00 | 0.00 | 0.00 | 44 | 1009.6 |
| 20260509025530 | 15 | 175 | 0.0 | 0.0 | 0.00 | 0.00 | 0.00 | 44 | 1009.7 |
| 20260509025030 | 15 | 175 | 0.0 | 0.0 | 0.00 | 0.00 | 0.00 | 44 | 1009.7 |
| 20260509024536 | 15 | 175 | 0.0 | 0.0 | 0.00 | 0.00 | 0.00 | 44 | 1009.7 |
| 20260509024029 | 15 | 174 | 0.0 | 0.0 | 0.00 | 0.00 | 0.00 | 45 | 1009.7 |
| 20260509023528 | 15 | 174 | 0.0 | 0.0 | 0.00 | 0.00 | 0.00 | 45 | 1009.7 |
| 20260509023032 | 15 | 174 | 0.0 | 0.0 | 0.00 | 0.00 | 0.00 | 44 | 1009.9 |
| 20260509022528 | 16 | 174 | 0.0 | 0.0 | 0.00 | 0.00 | 0.00 | 44 | 1009.9 |
| 20260509022028 | 16 | 174 | 0.0 | 0.0 | 0.00 | 0.00 | 0.00 | 44 | 1010.0 |
| 20260509021528 | 16 | 174 | 0.0 | 0.0 | 0.00 | 0.00 | 0.00 | 43 | 1010.0 |
| 20260509021027 | 16 | 180 | 0.0 | 0.0 | 0.00 | 0.00 | 0.00 | 43 | 1010.0 |
| 20260509020527 | 16 | 180 | 0.0 | 0.0 | 0.00 | 0.00 | 0.00 | 43 | 1010.0 |
| 20260509020027 | 16 | 196 | 0.0 | 0.0 | 0.00 | 0.00 | 0.00 | 43 | 1010.0 |
| 20260509015527 | 16 | 196 | 0.0 | 0.0 | 0.00 | 0.00 | 0.00 | 42 | 1010.0 |
| 20260509015027 | 16 | 196 | 0.0 | 0.0 | 0.00 | 0.00 | 0.00 | 43 | 1009.8 |
| 20260509014526 | 16 | 196 | 0.0 | 0.0 | 0.00 | 0.00 | 0.00 | 42 | 1009.8 |
| 20260509014025 | 16 | 196 | 0.0 | 0.0 | 0.00 | 0.00 | 0.00 | 41 | 1009.9 |
| 20260509013526 | 16 | 196 | 0.0 | 0.0 | 0.00 | 0.00 | 0.00 | 42 | 1009.8 |
| 20260509013034 | 16 | 196 | 0.0 | 0.0 | 0.00 | 0.00 | 0.00 | 41 | 1009.9 |
| 20260509012525 | 16 | 200 | 0.0 | 0.0 | 0.00 | 0.00 | 0.00 | 40 | 1010.0 |
| 20260509012025 | 17 | 201 | 0.0 | 0.0 | 0.00 | 0.00 | 0.00 | 40 | 1010.1 |
| 20260509011525 | 17 | 201 | 0.0 | 0.0 | 0.00 | 0.00 | 0.00 | 40 | 1010.0 |
| 20260509011027 | 17 | 200 | 0.0 | 0.0 | 0.00 | 0.00 | 0.00 | 40 | 1010.0 |
| 20260509010524 | 17 | 201 | 0.0 | 0.0 | 0.00 | 0.00 | 0.00 | 39 | 1009.9 |
| 20260509010027 | 17 | 201 | 0.0 | 0.0 | 0.00 | 0.00 | 0.00 | 38 | 1009.9 |
| 20260509005524 | 17 | 201 | 0.0 | 0.0 | 0.00 | 0.00 | 0.00 | 37 | 1009.9 |
| 20260509005023 | 18 | 201 | 0.0 | 0.0 | 0.00 | 0.00 | 0.00 | 37 | 1009.9 |
| 20260509004530 | 18 | 201 | 0.0 | 0.0 | 0.00 | 0.00 | 0.00 | 36 | 1010.0 |
| 20260509004023 | 18 | 212 | 0.0 | 0.0 | 0.00 | 0.00 | 0.00 | 36 | 1010.0 |
| 20260509003522 | 18 | 212 | 0.0 | 0.0 | 0.00 | 0.00 | 0.00 | 35 | 1010.0 |
| 20260509003022 | 18 | 214 | 0.0 | 0.0 | 0.00 | 0.00 | 0.00 | 35 | 1010.0 |
| 20260509002521 | 18 | 214 | 0.0 | 0.0 | 0.00 | 0.00 | 0.00 | 34 | 1010.1 |
| 20260509002026 | 18 | 214 | 0.0 | 0.0 | 0.00 | 0.00 | 0.00 | 33 | 1010.1 |
| 20260509001522 | 19 | 220 | 0.0 | 0.0 | 0.00 | 0.00 | 0.00 | 33 | 1010.2 |
| 20260509001021 | 19 | 223 | 0.0 | 0.0 | 0.00 | 0.00 | 0.00 | 32 | 1010.2 |
| 20260509000521 | 20 | 211 | 0.0 | 0.0 | 0.00 | 0.00 | 0.00 | 31 | 1010.2 |
| 20260509000021 | 20 | 214 | 0.0 | 0.0 | 0.00 | 0.00 | 0.00 | 31 | 1010.2 |
| 20260508235521 | 20 | 198 | 0.0 | 0.0 | 0.00 | 0.00 | 0.00 | 32 | 1010.2 |
| 20260508235020 | 20 | 198 | 0.0 | 0.0 | 0.00 | 0.00 | 0.00 | 31 | 1010.2 |
| 20260508234521 | 20 | 198 | 0.0 | 0.0 | 0.00 | 0.00 | 0.00 | 30 | 1010.2 |
| 20260508234020 | 20 | 198 | 0.0 | 0.0 | 0.00 | 0.00 | 0.00 | 31 | 1010.2 |
| 20260508233520 | 20 | 217 | 0.0 | 0.0 | 0.00 | 0.00 | 0.00 | 30 | 1010.1 |
| 20260508233020 | 20 | 214 | 0.0 | 0.0 | 0.00 | 0.00 | 0.00 | 30 | 1010.1 |
| 20260508232519 | 20 | 222 | 0.0 | 0.0 | 0.00 | 0.00 | 0.00 | 30 | 1010.1 |
| 20260508232018 | 20 | 183 | 0.0 | 0.0 | 0.00 | 0.00 | 0.00 | 30 | 1010.2 |
| 20260508231518 | 20 | 193 | 0.0 | 0.0 | 0.00 | 0.00 | 0.00 | 30 | 1010.3 |
| 20260508231017 | 20 | 186 | 0.0 | 0.0 | 0.00 | 0.00 | 0.00 | 29 | 1010.3 |
| 20260508230519 | 20 | 184 | 0.0 | 0.0 | 0.00 | 0.00 | 0.00 | 30 | 1010.4 |
| 20260508230016 | 20 | 207 | 0.0 | 0.0 | 0.00 | 0.00 | 0.00 | 29 | 1010.5 |
| 20260508225517 | 21 | 215 | 0.0 | 0.0 | 0.00 | 0.00 | 0.00 | 29 | 1010.5 |
| 20260508225017 | 21 | 200 | 0.0 | 0.0 | 0.00 | 0.00 | 0.00 | 29 | 1010.5 |
| 20260508224516 | 21 | 220 | 0.0 | 0.0 | 0.00 | 0.00 | 0.00 | 28 | 1010.5 |
| 20260508224017 | 21 | 227 | 0.0 | 0.0 | 0.00 | 0.00 | 0.00 | 28 | 1010.5 |
| 20260508223516 | 21 | 216 | 0.0 | 0.0 | 0.00 | 0.00 | 0.00 | 28 | 1010.6 |
| 20260508223023 | 21 | 205 | 0.0 | 0.0 | 0.00 | 0.00 | 0.00 | 29 | 1010.6 |
| 20260508222514 | 21 | 205 | 0.0 | 0.0 | 0.00 | 0.00 | 0.00 | 28 | 1010.6 |
| 20260508222014 | 21 | 232 | 0.0 | 0.0 | 0.00 | 0.00 | 0.00 | 29 | 1010.7 |
| 20260508221525 | 21 | 233 | 0.0 | 0.0 | 0.00 | 0.00 | 0.00 | 28 | 1010.6 |
| 20260508221014 | 21 | 227 | 0.0 | 0.0 | 0.00 | 0.00 | 0.00 | 27 | 1010.5 |
| 20260508220514 | 21 | 221 | 0.0 | 0.0 | 0.00 | 0.00 | 0.00 | 28 | 1010.5 |
| 20260508220023 | 21 | 201 | 0.0 | 0.0 | 0.00 | 0.00 | 0.00 | 28 | 1010.4 |
| 20260508215516 | 21 | 198 | 0.0 | 0.0 | 0.00 | 0.00 | 0.00 | 28 | 1010.4 |
| 20260508215012 | 21 | 246 | 0.0 | 0.0 | 0.00 | 0.00 | 0.00 | 28 | 1010.3 |
| 20260508214513 | 21 | 180 | 0.0 | 0.0 | 0.00 | 0.00 | 0.00 | 28 | 1010.4 |
| 20260508214013 | 21 | 198 | 0.0 | 11.3 | 0.00 | 0.00 | 0.00 | 27 | 1010.4 |
| 20260508213511 | 21 | 194 | 6.4 | 12.9 | 0.00 | 0.00 | 0.00 | 28 | 1010.4 |
| 20260508213017 | 21 | 181 | 0.0 | 0.0 | 0.00 | 0.00 | 0.00 | 27 | 1010.4 |
| 20260508212511 | 21 | 223 | 0.0 | 0.0 | 0.00 | 0.00 | 0.00 | 28 | 1010.5 |
| 20260508212017 | 21 | 210 | 0.0 | 0.0 | 0.00 | 0.00 | 0.00 | 28 | 1010.5 |
| 20260508211510 | 21 | 227 | 0.0 | 9.7 | 0.00 | 0.00 | 0.00 | 27 | 1010.6 |
| 20260508211012 | 21 | 211 | 0.0 | 11.3 | 0.00 | 0.00 | 0.00 | 30 | 1010.5 |
| 20260508210509 | 21 | 205 | 0.0 | 11.3 | 0.00 | 0.00 | 0.00 | 28 | 1010.6 |
| 20260508210009 | 21 | 219 | 8.0 | 25.7 | 0.00 | 0.00 | 0.00 | 27 | 1010.8 |
| 20260508205512 | 21 | 204 | 9.7 | 25.7 | 0.00 | 0.00 | 0.00 | 29 | 1010.9 |
| 20260508205009 | 21 | 228 | 8.0 | 14.5 | 0.00 | 0.00 | 0.00 | 29 | 1010.8 |
| 20260508204507 | 21 | 229 | 6.4 | 29.0 | 0.00 | 0.00 | 0.00 | 31 | 1011.0 |
| 20260508204005 | 21 | 215 | 14.5 | 29.0 | 0.00 | 0.00 | 0.00 | 29 | 1011.0 |
| 20260508203505 | 21 | 198 | 0.0 | 0.0 | 0.00 | 0.00 | 0.00 | 28 | 1011.1 |
| 20260508203010 | 21 | 235 | 0.0 | 1.6 | 0.00 | 0.00 | 0.00 | 28 | 1011.3 |
| 20260508202504 | 21 | 200 | 0.0 | 1.6 | 0.00 | 0.00 | 0.00 | 27 | 1011.3 |
| 20260508202003 | 21 | 169 | 0.0 | 1.6 | 0.00 | 0.00 | 0.00 | 28 | 1011.4 |
| 20260508201503 | 21 | 181 | 0.0 | 1.6 | 0.00 | 0.00 | 0.00 | 28 | 1011.5 |